User: anonymous   Login
Location: Nirvana
(45.0297°N, 77.2628°W)
Time: 00:56:45
(UTC-05:00)
Language:

H-2A R/B - Orbit

View from above orbital plane
View from above orbital plane
View from above satellite
View from above satellite

Ground track
Ground track

The orbit data is extracted from the following two-line orbital elements,

1 27601U 02056E   16044.86658084  .00000111  00000-0  56116-4 0  9995
2 27601  98.4304 122.0332 0071178 305.6312 166.5755 14.31686399687795
Epoch (UTC): 13 February 2016 20:47:52
Eccentricity: 0.0071178
inclination: 98.4304°
perigee height: 735 km
apogee height: 837 km
right ascension of ascending node: 122.0332°
argument of perigee: 305.6312°
revolutions per day: 14.31686399
mean anomaly at epoch: 166.5755°
orbit number at epoch: 68779

The dashed part of the orbit path shows where the satellite is in the earth's shadow,  

DLR